Date,TemperatureHighF,TemperatureAvgF,TemperatureLowF,DewpointHighF,DewpointAvgF,DewpointLowF,HumidityHigh,HumidityAvg,HumidityLow,PressureMaxIn,PressureMinIn,WindSpeedMaxMPH,WindSpeedAvgMPH,GustSpeedMaxMPH,PrecipitationSumIn
2013-1-1,50.9,46.9,42.6,44.2,37.6,8.2,96,73,20,29.71,29.53,8,2,9,0.27
2013-1-2,48.2,42.3,37.6,41.8,30.4,18.7,97,65,42,29.83,29.58,14,4,17,0.04
2013-1-3,50.4,37.7,32.7,30.8,26.2,16.0,77,64,43,29.88,29.79,8,2,10,0.00
2013-1-4,48.4,37.3,29.7,25.9,18.5,8.2,81,50,25,29.94,27.56,17,5,20,0.00
2013-1-5,59.7,42.5,33.4,30.1,18.3,3.9,64,43,16,30.02,29.84,13,4,16,0.00
2013-1-6,56.7,46.6,36.1,34.2,29.8,23.2,88,54,35,29.85,29.69,13,4,15,0.01
2013-1-7,57.2,42.2,32.0,31.5,24.6,12.0,83,54,23,30.09,29.80,13,4,17,0.00
2013-1-8,60.3,40.1,27.7,39.9,32.0,24.2,95,76,41,30.09,29.98,14,2,20,0.00
2013-1-9,66.0,47.6,33.3,50.4,42.3,32.5,99,84,56,30.06,29.96,10,2,13,0.00
2013-1-10,68.9,48.8,41.2,49.7,36.4,18.2,99,69,21,30.20,30.06,5,1,7,0.00
2013-1-11,46.2,43.0,40.8,43.4,40.2,34.5,99,90,68,30.08,29.77,9,1,11,0.02
2013-1-12,80.8,55.5,42.6,59.9,50.8,42.3,99,87,47,29.80,29.72,5,1,6,0.01
2013-1-13,74.8,62.8,52.2,62.8,57.1,-9.0,99,84,59,29.75,29.64,17,3,21,0.00
2013-1-14,65.8,58.1,48.0,61.3,56.4,47.7,99,94,82,29.90,29.66,14,2,18,0.76
2013-1-15,48.0,42.5,39.2,47.8,42.1,38.9,99,98,97,29.93,29.74,11,3,14,2.02
2013-1-16,39.7,39.3,38.8,39.5,39.0,38.4,99,99,99,29.77,29.65,8,3,11,0.27
2013-1-17,48.4,39.9,33.8,48.1,38.6,33.3,99,95,77,29.80,29.62,11,4,15,1.11
2013-1-18,52.9,37.3,29.5,34.9,23.1,7.5,98,62,23,30.14,29.79,14,3,21,0.22
2013-1-19,58.5,39.9,28.2,33.5,26.7,15.3,93,66,22,30.09,29.72,11,3,14,0.02
2013-1-20,59.7,46.1,35.2,33.2,27.4,11.2,84,54,24,29.72,29.62,21,5,30,0.00
2013-1-21,59.2,41.8,30.4,33.0,17.0,-6.1,84,45,17,29.72,29.49,22,5,31,0.00
2013-1-22,36.0,28.1,23.2,-1.9,-10.4,-17.9,25,20,16,29.90,29.62,17,6,22,0.00
2013-1-23,39.6,28.6,20.1,16.2,-1.1,-13.5,55,31,18,29.96,29.65,15,4,20,0.00
2013-1-24,34.7,30.0,23.7,17.7,2.9,-11.1,57,35,18,30.14,29.60,26,9,33,0.00
2013-1-25,27.5,23.1,19.6,21.6,9.7,-4.0,80,59,31,30.12,29.68,17,4,21,0.00
2013-1-26,51.1,34.3,23.9,29.7,21.5,14.5,95,63,28,30.04,29.67,13,3,17,0.05
2013-1-27,38.1,31.8,24.1,26.2,21.1,16.0,79,65,54,30.22,30.04,10,2,13,0.00
2013-1-28,60.8,43.7,33.6,44.7,36.3,25.0,95,77,46,30.08,29.80,18,4,24,0.15
2013-1-29,77.0,56.3,42.4,56.7,45.1,40.1,98,72,32,29.82,29.64,17,3,21,0.00
2013-1-30,70.3,63.9,52.7,63.6,59.3,48.7,98,86,67,29.65,27.24,32,7,43,0.58
2013-1-31,54.3,41.5,31.5,50.3,24.0,7.9,92,53,26,29.59,29.03,24,8,34,0.07
2013-2-1,38.3,29.7,21.6,29.3,2.2,-13.5,76,35,17,30.01,29.43,25,6,36,0.00
2013-2-2,37.8,28.9,18.9,20.1,6.4,-2.6,60,41,22,30.00,29.63,21,4,25,0.00
2013-2-3,46.2,37.7,32.9,28.1,21.2,13.5,75,53,40,29.64,29.47,17,5,27,0.01
2013-2-4,43.3,35.2,28.0,26.9,16.7,8.9,70,48,33,29.77,29.56,14,4,18,0.00
2013-2-5,58.5,45.9,36.7,35.0,29.8,23.7,83,56,35,29.59,29.51,14,4,27,0.00
2013-2-6,68.2,45.4,35.4,36.9,27.1,8.1,88,57,14,29.95,29.58,108,3,108,0.00
2013-2-7,41.9,37.8,34.0,35.6,29.7,25.2,90,73,62,30.01,29.74,10,4,13,0.27
2013-2-8,58.5,42.3,35.2,43.2,32.7,23.4,97,73,38,29.74,29.46,20,6,31,0.26
2013-2-9,59.0,40.3,30.9,24.5,13.6,-0.2,64,39,15,29.98,29.67,19,6,29,0.00
2013-2-10,54.0,38.8,27.3,38.2,18.7,5.8,94,52,18,30.11,29.83,12,2,16,0.06
2013-2-11,60.1,48.9,38.7,54.5,42.8,29.9,99,83,42,29.83,29.52,18,3,21,0.12
2013-2-12,61.2,50.5,45.3,37.3,20.9,7.3,70,37,16,29.70,29.56,18,4,29,0.00
2013-2-13,50.7,44.8,40.6,44.9,39.9,26.7,98,84,42,29.58,29.26,13,2,18,0.12
2013-2-14,59.5,43.5,33.8,33.8,26.7,15.3,83,57,21,29.69,29.46,10,3,100,0.00
2013-2-15,62.1,44.9,31.3,38.0,30.4,20.8,97,64,24,29.71,29.53,19,4,23,0.00
2013-2-16,42.6,38.0,30.7,31.5,20.0,4.9,65,50,26,29.64,29.47,17,6,25,0.00
2013-2-17,37.2,28.5,22.8,14.9,-0.5,-13.1,62,32,17,29.87,29.54,23,7,30,0.00
2013-2-18,57.0,37.8,-8.3,27.2,10.8,-16.3,66,38,16,29.99,29.78,15,3,19,0.00
2013-2-19,53.6,44.2,37.9,40.9,25.3,-1.3,88,54,17,29.80,29.44,23,7,32,0.06
2013-2-20,52.2,40.0,33.6,16.3,4.4,-4.6,43,26,16,29.80,29.59,20,6,27,0.00
2013-2-21,59.4,40.5,28.9,28.6,11.4,-0.2,62,35,15,29.91,29.26,14,3,16,0.00
2013-2-22,41.0,36.5,32.2,30.9,24.9,16.5,88,64,40,29.98,29.77,8,2,9,0.04
2013-2-23,53.6,41.3,35.1,41.8,36.0,29.1,99,82,60,29.79,29.44,9,2,11,0.02
2013-2-24,63.9,47.5,36.3,40.6,26.0,7.3,99,55,14,29.70,29.42,17,4,26,0.01
2013-2-25,50.2,37.0,30.7,28.6,21.5,13.3,75,56,27,29.86,29.70,9,2,11,0.00
2013-2-26,41.0,36.1,31.3,40.7,32.1,21.4,99,86,58,29.81,29.25,13,5,17,1.09
2013-2-27,61.5,45.4,36.7,40.9,35.1,27.4,99,72,32,29.40,29.23,15,4,24,0.01
2013-2-28,48.7,41.7,37.0,32.9,26.2,18.0,78,56,36,29.47,29.32,22,5,28,0.00
2013-3-1,42.6,39.8,34.2,29.8,25.7,21.1,81,58,49,29.55,29.44,11,4,16,0.00
2013-3-2,38.8,37.8,37.8,25.1,23.7,23.1,59,57,56,29.56,29.47,17,6,21,0.00
2013-3-3,37.8,37.8,37.8,23.6,23.6,23.6,57,57,57,29.61,29.51,16,6,23,0.00
2013-3-4,58.3,43.0,37.8,23.6,18.7,5.5,57,45,16,29.73,29.60,17,5,20,0.00
2013-3-5,55.4,55.4,55.4,6.6,6.6,6.6,17,17,17,29.70,29.26,11,2,17,0.65
2013-3-6,55.4,55.4,55.4,6.6,6.6,6.6,17,17,17,29.70,29.23,29,9,34,0.15
2013-3-7,55.4,55.4,55.4,6.6,6.6,6.6,17,17,17,29.88,29.69,24,8,30,0.00
2013-3-8,55.4,55.4,55.4,6.6,6.6,6.6,17,17,17,29.95,29.83,24,8,30,0.00
2013-3-9,55.4,55.4,55.4,11.3,9.2,6.6,17,17,17,30.00,29.88,8,2,10,0.00
2013-3-10,55.4,55.4,55.4,11.3,11.3,11.2,17,17,17,29.95,29.82,14,2,18,0.00
2013-3-11,55.4,55.4,55.4,11.3,11.3,11.2,17,17,17,29.84,29.52,7,2,15,0.00
2013-3-12,55.4,55.4,55.4,11.3,11.3,11.3,17,17,17,29.64,29.36,11,5,21,0.53
2013-3-13,55.4,55.4,55.4,11.3,11.3,11.2,17,17,17,29.80,29.61,16,6,33,0.00
2013-3-14,55.4,55.4,55.4,11.3,11.3,11.3,17,17,17,29.88,29.75,14,6,26,0.00
2013-3-15,55.4,55.4,55.4,11.3,11.3,11.3,17,17,17,29.80,29.50,15,6,27,0.00
2013-3-16,55.4,55.4,55.4,11.3,11.3,11.3,17,17,17,29.50,29.23,18,5,42,0.01
2013-3-17,55.4,55.4,55.4,11.3,11.3,11.3,17,17,17,29.84,29.47,9,4,15,0.09
2013-3-18,55.4,55.4,55.4,11.3,11.3,11.3,17,17,17,29.86,29.64,9,4,15,0.21
2013-5-3,52.2,42.4,33.6,40.7,10.9,-0.6,74,30,17,29.97,29.71,14,7,20,0.00
2013-5-4,52.2,38.9,28.9,14.5,9.4,3.5,49,31,17,30.12,29.91,11,5,15,0.00
2013-5-5,57.9,39.5,32.2,28.5,21.6,8.6,86,52,16,30.25,30.03,5,2,8,0.04
2013-5-6,48.7,38.2,35.2,39.0,31.7,26.9,90,78,62,30.12,29.80,8,2,9,0.02
2013-5-7,60.4,45.8,36.5,41.7,34.9,18.9,99,73,20,29.85,29.71,11,3,17,0.01
2013-5-8,61.7,41.6,30.9,29.1,21.8,12.4,73,49,17,30.13,29.82,9,3,12,0.00
2013-5-9,66.4,49.1,31.3,60.9,41.7,18.3,93,77,29,30.09,29.86,10,2,15,0.24
2013-5-10,84.2,69.6,55.2,62.1,57.8,53.2,99,71,37,29.99,29.84,11,3,24,0.00
2013-5-11,79.9,69.6,63.3,66.6,62.0,58.1,97,78,48,29.87,29.68,9,4,17,0.08
2013-5-12,68.9,68.9,68.9,59.9,59.9,59.9,73,73,73,29.99,29.73,4,4,8,0.00
2013-5-13,68.9,68.9,68.9,59.9,59.9,59.9,73,73,73,30.11,29.97,4,4,8,0.00
2013-5-14,68.9,42.3,0.0,59.9,59.9,59.9,73,45,73,30.16,29.94,4,2,8,0.00
2013-5-15,0.0,0.0,0.0,59.9,59.9,59.9,0,0,100,29.95,29.77,0,0,0,0.00
2013-5-16,0.0,0.0,0.0,59.9,59.9,59.9,0,0,100,29.92,29.81,0,0,0,0.00
2013-5-17,0.0,0.0,0.0,59.9,59.9,59.9,0,0,100,30.04,29.92,0,0,0,0.00
2013-5-18,0.0,0.0,0.0,59.9,59.9,59.9,0,0,100,30.11,30.02,0,0,0,0.00
2013-5-19,0.0,0.0,0.0,59.9,59.9,59.9,0,0,100,30.07,29.97,0,0,0,0.00
2013-5-20,0.0,0.0,0.0,59.9,59.9,59.9,0,0,100,30.04,29.96,0,0,0,0.00
2013-5-21,0.0,0.0,0.0,59.9,59.9,59.9,0,0,100,29.97,29.84,0,0,0,0.00
2013-5-22,0.0,0.0,0.0,59.9,59.9,59.9,0,0,100,29.92,29.84,0,0,0,0.00
2013-6-10,0.0,0.0,0.0,59.9,59.9,59.9,0,0,100,29.80,29.79,0,0,0,0.00
2013-6-12,0.0,0.0,0.0,59.9,59.9,59.9,0,0,100,29.80,29.79,0,0,0,0.00
2013-6-13,0.0,0.0,0.0,59.9,59.9,59.9,0,0,100,29.61,29.61,0,0,0,0.00